Regional Weather Roundup
Issued by NWS

Home | Current Version | Previous Version | Graphics & Text | Print | Product List | Glossary On
Versions: 1 2 3 4 5 6 7 8 9 10 11 12 13 14 15 16 17 18 19 20 21 22 23 24 25 26 27 28 29 30 31 32 33 34 35 36 37 38 39 40 41 42 43 44 45 46 47 48 49 50
000
ASUS45 KTFX 200019
RWRMT
MONTANA HOURLY WEATHER ROUNDUP
NATIONAL WEATHER SERVICE GREAT FALLS MT
619 PM MDT FRI SEP 19 2014

NOTE: "FAIR" INDICATES FEW OR NO CLOUDS BELOW 12000 FEET WITH NO
SIGNIFICANT WEATHER AND/OR OBSTRUCTIONS TO VISIBILITY.

* THESE STATIONS ARE NOT UNDER NWS QUALITY CONTROL. THEY DO NOT
   REPORT WEATHER SUCH AS PRECIPITATION OR FOG.

MTZ001>007-043-200100-
WEST OF THE DIVIDE
CITY           SKY/WX    TMP DP  RH WIND       PRES   REMARKS
KALISPELL      CLOUDY    72  45  38 W8        30.02S
MISSOULA       MOCLDY    73  45  37 W8        30.08R
BUTTE          CLOUDY    68  39  35 NW16G30   30.13R
MULLAN PASS    MOCLDY    55  45  69 VRB5      30.20R
* ESSEX        N/A       65  44  47 NW2        N/A
* LINCOLN      N/A       65  42  43 SW6G16     N/A
* LOOKOUT PASS N/A       61  46  58 N7         N/A
* POLSON       N/A       69  44  41 W3         N/A
* RONAN APT    MOCLDY    72  46  40 N/A        N/A
* SEELEY LAKE  N/A       64  43  47 SW6G16     N/A
* THOMP F APT  PTCLDY    72  42  34 S8G17      N/A
$$

MTZ008-052>055-200100-
SOUTHWEST MONTANA
CITY           SKY/WX    TMP DP  RH WIND       PRES   REMARKS
BOZEMAN        PTCLDY    70  43  38 N10       30.03R
DILLON         CLEAR     75  39  27 W13       30.05R
W YELLOWSTONE  CLOUDY    64  45  50 SW14G22   30.14S
* THREE FORKS  CLEAR     75  52  45 NW14       N/A
* BOULDER HILL N/A       65  37  36 SE1G12     N/A
* MONIDA PASS  N/A       69  40  35 SW4        N/A
* RAYNOLDS PAS N/A       67  49  53 S5G10      N/A
* WHITEHALL    N/A       75  41  30 NW12G21    N/A
* WISE RIVER   N/A       67  39  36 NW14G27    N/A
$$

MTZ009>010-012-014-046-048-049-054-200100-
EAST SLOPES AND CENTRAL MONTANA
CITY           SKY/WX    TMP DP  RH WIND       PRES   REMARKS
CUT BANK       CLEAR     70  43  38 W22G32    29.91F
GREAT FALLS    CLEAR     72  41  33 W25G30    29.95R
HELENA         CLEAR     73  39  29 NW16G28   30.01F
MALMSTROM AFB  PTCLDY    72  39  30 W21G31    29.96R
* CONRAD       CLEAR     72  48  43 N/A        N/A
* EAST GLACIER N/A       62  40  45 W24G34     N/A
* MONARCH      N/A       61  39  44 W16G21     N/A
* PENDROY      N/A       65  45  49 NW15G22    N/A
* ROGERS PASS  N/A       61  41  48 NW1G15     N/A
* SAINT MARY   N/A       64  40  41 SW11G30    N/A
* SWEET GRASS  N/A       71  39  31 NW18G29    N/A
* WHITE SULPH  N/A       69  39  34 W8G23      N/A
$$

MTZ011-013-016-021-035-040-045-047-050-051-200100-
NORTH CENTRAL MONTANA
CITY           SKY/WX    TMP DP  RH WIND       PRES   REMARKS
HAVRE          PTCLDY    75  43  32 W12       29.82R
LEWISTOWN      CLOUDY    70  43  38 W16G24    29.96R
* CHINOOK      PTCLDY    75  48  39 W3        29.81R
* CHESTER      N/A       74  40  29 W16G28     N/A
* DENTON       N/A       73  43  34 W16G31     N/A
* GEYSER       N/A       68  44  42 W23G30     N/A
* JUDITH GAP   N/A       67  49  53 N10        N/A
* LOMA         N/A       74  43  33 W15G26     N/A
$$

MTZ017>020-022>027-061-062-200100-
NORTHEAST MONTANA
CITY           SKY/WX    TMP DP  RH WIND       PRES   REMARKS
GLASGOW        PTCLDY    73  52  48 NW10      29.79R
GLENDIVE       PTCLDY    73  46  38 NW15G22   29.82S
JORDAN         CLEAR     72  48  43 NW9       29.84R
SIDNEY         PTCLDY    73  50  44 NW7       29.79R
WOLF POINT     MOCLDY    75  52  45 W9        29.77S
* BEAVER HILL  N/A       72  46  40 W13G19     N/A
* CIRCLE       N/A       74  50  43 NW6G11     N/A
* LINDSAY DVD  N/A       72  47  41 W17G23     N/A
* NAVAJO       N/A       69  51  53 NW14G19    N/A
$$

MTZ028>042-056>058-200100-
SOUTHCENTRAL AND SOUTHEAST MONTANA
CITY           SKY/WX    TMP DP  RH WIND       PRES   REMARKS
BAKER          PTCLDY    73  46  38 NW13G24   29.85R
BILLINGS       MOCLDY    73  43  34 NW9       29.94R
LIVINGSTON     PTCLDY    73  41  32 W16G28    30.00R
MILES CITY     PTCLDY    75  45  34 W21       29.85R
* LAUREL APT   PTCLDY    72  45  38 N/A        N/A
* ROUNDUP APT  PTCLDY    72  45  38 NW7        N/A
* ALZADA       N/A       74  47  38 NW12       N/A
* HYSHAM       N/A       70  43  38 N2G7       N/A
* LAME DEER    N/A       69  44  41 NW5G12     N/A
* REED POINT   N/A       74  42  32 W11G17     N/A
* ROSCOE HILL  N/A       67  37  33 N2         N/A
$$

REGIONAL REPORTS...DAKOTAS
CITY           SKY/WX    TMP DP  RH WIND       PRES   REMARKS
WILLISTON      CLEAR     72  50  46 NW14      29.76R
DICKINSON      CLOUDY    72  48  43 W14       29.77R
BEACH          N/A       72  45  38 NW20      29.82S
CROSBY         CLEAR     68  55  63 NW10      29.75R
TIOGA          CLEAR     68  52  57 NW17G23   29.79R
WATFORD CITY   CLEAR     72  48  43 NW10      29.75R
BISMARCK       CLOUDY    77  52  42 W14       29.69R
GRAND FORKS    PTCLDY    79  55  44 W6        29.49F
FARGO          PTCLDY    77  66  69 S12       29.56R
BUFFALO SD     CLOUDY    75  46  36 NW17      29.81R
RAPID CITY     CLOUDY    79  48  34 N10       29.86R
$$

REGIONAL REPORTS...WYOMING/IDAHO/WASHINGTON
CITY           SKY/WX    TMP DP  RH WIND       PRES   REMARKS
GILLETTE       PTCLDY    73  46  38 N18       29.95R
SHERIDAN       MOCLDY    72  48  43 NW10      29.96R
CODY           PTCLDY   N/A N/A N/A N/A        N/A
YELLOWSTONE LA PTCLDY    61  39  44 W7        30.24R
SALMON         CLEAR     77  45  32 SW3       29.98S
MULLAN PASS    MOCLDY    55  45  69 VRB5      30.20S
SAND POINT     CLOUDY    70  50  49 CALM      30.02F
SPOKANE        MOCLDY    75  46  36 S13       30.03F
$$

REGIONAL REPORTS...ALBERTA
CITY           SKY/WX    TMP DP  RH WIND       PRES   REMARKS
CALGARY        FAIR      70  37  30 W24G30    29.83R
LETHBRIDGE     PTCLDY    70  41  35 W29G49    29.83R
MEDICINE HAT   FAIR      75  45  34 S2        29.76F
EDMONTON       PTCLDY    72  43  35 NW10G18   29.73R
WATERTON GATE  N/A       64  41  43 SW20G28    N/A
CARDSTON       N/A       66  41  40 W14G22     N/A
$$

REGIONAL REPORTS...SASKATCHEWAN
CITY           SKY/WX    TMP DP  RH WIND       PRES   REMARKS
SWIFT CURRENT  CLEAR     70  46  42 NW12      29.77R
MOOSE JAW      FAIR      68  52  57 W6        29.74R
REGINA         FAIR      66  52  61 NW9       29.73R
VAL MARIE      N/A       72  43  35 NW13       N/A
ASSINIBOIA     N/A       68  46  45 NW9        N/A
CORONACH       N/A       66  54  65 W6         N/A

$$



USA.gov is the U.S. government's official web portal to all federal, state and local government web resources and services.